Flag for Gaza Strip Weather past 2 weeks in Khan Yunis, Gaza Strip

Now
66 °F

Passing clouds.


Feels Like: 66 °F
Forecast: 52 / 65 °F
Wind: 10 mph from Northwest

Location: El Arish

Current Time: Jan 28, 2015 at 3:09:19 PM

Latest Report: Jan 28, 2015 at 2:00 PM


Visibility: N/A

Pressure: 29.95 "Hg

Humidity: 60%

Dew point: 52 °F

Location of Khan YunisLocation

Historic Weather in Khan Yunis — Graph

°F

Khan Yunis temperature yesterday

Maximum temperature yesterday: 70 °F (at 12:00 PM)
Minimum temperature yesterday: 54 °F (at 12:00 AM)
Average temperature yesterday: 61 °F

Past Weeks' High & Low Weather Summary

 TemperatureHumidityPressure
High77 °F (Jan 21, 2:00 PM)100% (Jan 13, 11:00 PM)30.33 "Hg (Jan 13, 11:00 PM)
Low41 °F (Jan 18, 6:00 AM)21% (Jan 22, 1:00 PM)29.86 "Hg (Jan 28, 12:00 AM)
Average56 °F81%30.09 "Hg
* Reported Jan 13 1:00 PM — Jan 28 1:00 PM, Khan Yunis, Weather by CustomWeather, © 2014

Note: Actual official high and low records may vary slightly from our data, if they occured in-between our weather recording intervals... More about our weather records

Advertising

Khan Yunis weather history for previous 24 hours

 ConditionsComfort  
Time TempWeatherWind HumidityBarometerVisibility
1:00 PM
Jan 28
66 °FScattered clouds.8 mph64%29.95 "HgN/A
12:00 PM66 °FScattered clouds.10 mph64%29.95 "HgN/A
7:00 AM55 °FClear.2 mph94%29.92 "Hg5 mi
6:00 AM54 °FClear.No wind100%29.89 "Hg4 mi
5:00 AM54 °FClear.No wind100%29.89 "Hg4 mi
4:00 AM52 °FClear.No wind100%29.86 "Hg4 mi
3:00 AM54 °FClear.No wind100%29.86 "Hg4 mi
2:00 AM54 °FClear.No wind94%29.86 "Hg10 mi
1:00 AM55 °FClear.No wind94%29.86 "Hg10 mi
12:00 AM57 °FPartly cloudy.No wind94%29.86 "HgN/A
11:00 PM
Jan 27
57 °FPartly cloudy.No wind94%29.89 "HgN/A
10:00 PM57 °FPartly cloudy.No wind94%29.89 "HgN/A
9:00 PM59 °FPartly cloudy.No wind94%29.92 "HgN/A
8:00 PM59 °FPartly cloudy.No wind88%29.92 "HgN/A
7:00 PM61 °FPartly cloudy.No wind88%29.92 "HgN/A
6:00 PM63 °FPartly cloudy.No wind83%29.92 "HgN/A
5:00 PM64 °FBroken clouds.No wind73%29.92 "HgN/A
4:00 PM66 °FSunny.5 mph68%29.92 "Hg10 mi
3:00 PM66 °FSunny.9 mph68%29.92 "Hg10 mi
Weather by CustomWeather, © 2014

See weather overviewHow to use our weather pages